EW9532 Weather Reports


Display with metric or nautical units.
time (UTC)temp
F
wind
direction
speed
MPH
gust
MPH
rain 1hr
in
rain 24hr
in
rain mn
in
humidity
%
barometer
mb
20260902161702 94 287 4.0 10.0 0.00 0.00 0.00 61 1016.4
20260902161605 93 204 2.0 9.0 0.00 0.00 0.00 61 1016.6
20260902161201 94 352 3.0 9.0 0.00 0.00 0.00 62 1016.4
20260902160925 93 186 4.0 9.0 0.00 0.00 0.00 62 1016.2
20260902160223 92 277 3.0 8.0 0.00 0.00 0.00 63 1016.5
20260902160201 93 250 2.0 9.0 0.00 0.00 0.00 63 1016.3
20260902155931 92 281 3.0 8.0 0.00 0.00 0.00 63 1016.4
20260902155202 92 87 3.0 8.0 0.00 0.00 0.00 65 1016.4
20260902154700 92 143 4.0 8.0 0.00 0.00 0.00 65 1016.5
20260902154629 91 340 2.0 9.0 0.00 0.00 0.00 65 1016.7
20260902154201 91 97 3.0 8.0 0.00 0.00 0.00 67 1016.5
20260902153653 91 236 4.0 8.0 0.00 0.00 0.00 67 1016.5
20260902153152 91 166 5.0 8.0 0.00 0.00 0.00 67 1016.4
20260902153141 90 119 4.0 9.0 0.00 0.00 0.00 67 1016.6
20260902153105 90 119 4.0 9.0 0.00 0.00 0.00 67 1016.6
20260902152651 90 122 3.0 8.0 0.00 0.00 0.00 69 1016.3
20260902152135 90 302 3.0 8.0 0.00 0.00 0.00 70 1016.3
20260902151629 90 262 3.0 8.0 0.00 0.00 0.00 71 1016.2
20260902151611 89 264 3.0 10.0 0.00 0.00 0.00 71 1016.5
20260902151129 89 234 4.0 8.0 0.00 0.00 0.00 72 1016.1
20260902150629 89 67 3.0 9.0 0.00 0.00 0.00 73 1016.1
20260902150129 89 288 4.0 9.0 0.00 0.00 0.00 74 1016.2
20260902145629 88 290 5.0 9.0 0.00 0.00 0.00 74 1016.3
20260902145347 88 135 5.0 9.0 0.00 0.00 0.00 75 1016.3
20260902144628 87 260 4.0 7.0 0.00 0.00 0.00 76 1016.2
20260902144555 87 161 2.0 9.0 0.00 0.00 0.00 75 1016.5
20260902144129 87 34 4.0 9.0 0.00 0.00 0.00 78 1016.2
20260902143857 87 305 5.0 9.0 0.00 0.00 0.00 77 1016.3
20260902143129 87 300 3.0 7.0 0.00 0.00 0.00 79 1016.2
20260902143055 86 338 2.0 8.0 0.00 0.00 0.00 78 1016.5
20260902142628 86 328 4.0 7.0 0.00 0.00 0.00 79 1016.3
20260902142127 86 162 3.0 6.0 0.00 0.00 0.00 80 1016.2
20260902141932 85 49 3.0 9.0 0.00 0.00 0.00 81 1016.5
20260902141601 85 161 3.0 9.0 0.00 0.00 0.00 82 1016.2
20260902141321 85 247 3.0 7.0 0.00 0.00 0.00 82 1016.2
20260902140601 84 200 3.0 8.0 0.00 0.00 0.00 83 1016.3
20260902140107 84 1 4.0 8.0 0.00 0.00 0.00 83 1016.2
20260902135822 84 74 2.0 6.0 0.00 0.00 0.00 84 1016.4
20260902135031 84 316 3.0 8.0 0.00 0.00 0.00 84 1016.2
20260902134611 83 236 3.0 8.0 0.00 0.00 0.00 84 1016.4
20260902134532 83 288 3.0 8.0 0.00 0.00 0.00 84 1016.2
20260902134032 83 269 2.0 5.0 0.00 0.00 0.00 84 1016.3
20260902133750 83 210 2.0 6.0 0.00 0.00 0.00 84 1016.2
20260902133104 83 207 1.0 6.0 0.00 0.00 0.00 84 1016.5
20260902133031 83 186 2.0 6.0 0.00 0.00 0.00 85 1016.1
20260902132531 83 180 1.0 6.0 0.00 0.00 0.00 84 1016.3
20260902132027 83 178 2.0 4.0 0.00 0.00 0.00 85 1016.2
20260902131635 83 311 1.0 5.0 0.00 0.00 0.00 84 1016.3
20260902131524 83 200 2.0 5.0 0.00 0.00 0.00 85 1016.0
20260902131021 83 320 2.0 5.0 0.00 0.00 0.00 84 1015.9
20260902130743 83 136 0.0 4.0 0.00 0.00 0.00 85 1015.9
20260902130453 83 359 1.0 4.0 0.00 0.00 0.00 86 1015.9
20260902130059 82 160 1.0 4.0 0.00 0.00 0.00 85 1016.0
20260902125510 83 269 2.0 6.0 0.00 0.00 0.00 86 1015.8
20260902125005 82 225 2.0 6.0 0.00 0.00 0.00 87 1015.8
20260902124620 82 208 0.0 5.0 0.00 0.00 0.00 87 1015.9
20260902124502 82 18 1.0 5.0 0.00 0.00 0.00 87 1015.7
20260902124003 82 219 2.0 5.0 0.00 0.00 0.00 88 1015.8
20260902123502 81 27 0.0 2.0 0.00 0.00 0.00 88 1015.7
20260902123137 81 98 0.0 5.0 0.00 0.00 0.00 87 1015.8
20260902123001 81 123 1.0 5.0 0.00 0.00 0.00 88 1015.6
20260902122502 81 338 2.0 5.0 0.00 0.00 0.00 87 1015.6
20260902122002 82 213 1.0 4.0 0.00 0.00 0.00 87 1015.7
20260902121642 81 0 1.0 4.0 0.00 0.00 0.00 87 1015.7
20260902121501 82 96 2.0 4.0 0.00 0.00 0.00 87 1015.6
20260902121004 82 269 1.0 4.0 0.00 0.00 0.00 87 1015.6
20260902120503 82 274 1.0 4.0 0.00 0.00 0.00 87 1015.5
20260902120004 82 1 1.0 5.0 0.00 0.00 0.00 87 1015.6
20260902115503 82 322 2.0 5.0 0.00 0.00 0.00 87 1015.6
20260902115225 82 66 2.0 5.0 0.00 0.00 0.00 87 1015.6
20260902114557 81 320 1.0 6.0 0.00 0.00 0.00 86 1015.7
20260902114503 82 226 1.0 5.0 0.00 0.00 0.00 86 1015.5
20260902114004 82 73 0.0 4.0 0.00 0.00 0.00 86 1015.4
20260902113504 82 187 2.0 4.0 0.00 0.00 0.00 86 1015.4
20260902113228 82 329 2.0 7.0 0.00 0.00 0.00 86 1015.3
20260902113202 81 223 1.0 6.0 0.00 0.00 0.00 86 1015.6
20260902112515 82 263 2.0 7.0 0.00 0.00 0.00 86 1015.3
20260902112016 82 207 3.0 4.0 0.00 0.00 0.00 86 1015.4
20260902111657 82 288 2.0 7.0 0.00 0.00 0.00 85 1015.6
20260902111503 82 119 2.0 4.0 0.00 0.00 0.00 86 1015.4
20260902111236 82 225 3.0 6.0 0.00 0.00 0.00 85 1015.4
20260902110503 82 345 3.0 7.0 0.00 0.00 0.00 85 1015.4
20260902110243 82 278 2.0 8.0 0.00 0.00 0.00 85 1015.5
20260902110125 82 278 2.0 8.0 0.00 0.00 0.00 85 1015.5
20260902110006 82 287 3.0 7.0 0.00 0.00 0.00 85 1015.3
20260902105503 82 247 2.0 4.0 0.00 0.00 0.00 85 1015.3
20260902105003 82 252 1.0 6.0 0.00 0.00 0.00 85 1015.4
20260902104616 82 275 1.0 7.0 0.00 0.00 0.00 85 1015.4
20260902104501 82 155 2.0 6.0 0.00 0.00 0.00 85 1015.3
20260902104226 82 184 2.0 6.0 0.00 0.00 0.00 85 1015.5
20260902103721 82 6 3.0 7.0 0.00 0.00 0.00 85 1015.5
20260902103052 82 70 2.0 7.0 0.00 0.00 0.00 85 1015.6
20260902103002 82 176 2.0 7.0 0.00 0.00 0.00 85 1015.5
20260902102943 82 191 3.0 7.0 0.00 0.00 0.00 85 1015.3
20260902102002 82 67 1.0 7.0 0.00 0.00 0.00 85 1015.3
20260902101601 82 260 2.0 6.0 0.00 0.00 0.00 84 1015.5
20260902101501 82 97 2.0 7.0 0.00 0.00 0.00 85 1015.4
20260902101017 82 302 2.0 6.0 0.00 0.00 0.00 85 1015.4
20260902100516 83 152 3.0 6.0 0.00 0.00 0.00 85 1015.5
20260902100326 82 72 2.0 7.0 0.00 0.00 0.00 84 1015.7
20260902100119 82 72 2.0 7.0 0.00 0.00 0.00 84 1015.7
20260902100004 83 180 2.0 6.0 0.00 0.00 0.00 85 1015.4
20260902095517 83 278 2.0 5.0 0.00 0.00 0.00 85 1015.4
20260902095001 83 327 2.0 7.0 0.00 0.00 0.00 85 1015.5
20260902094607 82 105 2.0 7.0 0.00 0.00 0.00 84 1015.7
20260902094502 83 278 3.0 7.0 0.00 0.00 0.00 84 1015.5
20260902094002 83 37 4.0 5.0 0.00 0.00 0.00 84 1015.5
20260902093502 83 345 1.0 4.0 0.00 0.00 0.00 84 1015.6
20260902093146 82 256 2.0 7.0 0.00 0.00 0.00 84 1015.8
20260902093002 83 6 2.0 5.0 0.00 0.00 0.00 84 1015.6
20260902092502 83 177 3.0 7.0 0.00 0.00 0.00 84 1015.6
20260902092002 83 281 3.0 9.0 0.00 0.00 0.00 84 1015.5
20260902091619 83 216 4.0 13.0 0.00 0.00 0.00 84 1015.7
20260902091501 83 350 5.0 9.0 0.00 0.00 0.00 84 1015.5
20260902091231 83 100 2.0 8.0 0.00 0.00 0.00 84 1015.4
20260902090503 83 240 4.0 8.0 0.00 0.00 0.00 84 1015.4
20260902090126 83 158 2.0 8.0 0.00 0.00 0.00 83 1015.7
20260902090004 83 136 3.0 8.0 0.00 0.00 0.00 84 1015.4
20260902085504 83 248 4.0 9.0 0.00 0.00 0.00 83 1015.3
20260902085003 83 105 5.0 9.0 0.00 0.00 0.00 83 1015.4
20260902084727 83 39 3.0 11.0 0.00 0.00 0.00 83 1015.4
20260902084607 83 70 3.0 12.0 0.00 0.00 0.00 83 1015.6
20260902084003 83 206 4.0 11.0 0.00 0.00 0.00 83 1015.5
20260902083503 83 57 4.0 11.0 0.00 0.00 0.00 83 1015.5
20260902083108 83 113 4.0 11.0 0.00 0.00 0.00 82 1015.7
20260902083002 83 164 4.0 11.0 0.00 0.00 0.00 83 1015.5
20260902082502 83 276 2.0 7.0 0.00 0.00 0.00 83 1015.6
20260902082000 83 248 3.0 10.0 0.00 0.00 0.00 82 1015.6
20260902081620 83 260 2.0 11.0 0.00 0.00 0.00 82 1015.8
20260902081454 83 221 2.0 11.0 0.00 0.00 0.00 82 1015.6
20260902081212 83 161 4.0 11.0 0.00 0.00 0.00 82 1015.6
20260902080443 83 157 1.0 10.0 0.00 0.00 0.00 82 1015.7
20260902080225 83 290 4.0 9.0 0.00 0.00 0.00 82 1015.8
20260902075943 83 306 5.0 10.0 0.00 0.00 0.00 82 1015.6
20260902075704 83 322 2.0 8.0 0.00 0.00 0.00 82 1015.7
20260902074938 84 22 3.0 8.0 0.00 0.00 0.00 82 1015.7
20260902074606 83 6 1.0 8.0 0.00 0.00 0.00 81 1016.0
20260902074434 84 273 2.0 7.0 0.00 0.00 0.00 82 1015.8
20260902073931 84 238 4.0 8.0 0.00 0.00 0.00 82 1015.8
20260902073430 84 130 2.0 8.0 0.00 0.00 0.00 82 1015.8
20260902073059 83 223 4.0 8.0 0.00 0.00 0.00 81 1016.1
20260902072930 84 186 4.0 8.0 0.00 0.00 0.00 82 1015.9
20260902072655 84 150 2.0 8.0 0.00 0.00 0.00 82 1015.7
20260902071930 84 217 4.0 8.0 0.00 0.00 0.00 81 1016.0
20260902071602 83 225 3.0 8.0 0.00 0.00 0.00 81 1016.2
20260902071430 84 278 3.0 8.0 0.00 0.00 0.00 81 1016.0
20260902070929 84 300 3.0 7.0 0.00 0.00 0.00 81 1016.1
20260902070433 84 349 3.0 7.0 0.00 0.00 0.00 81 1016.2
20260902070318 83 134 3.0 8.0 0.00 0.00 0.00 81 1016.5
20260902070220 83 134 3.0 8.0 0.00 0.00 0.00 81 1016.5
20260902065932 84 264 3.0 8.0 0.00 0.00 0.00 81 1016.1
20260902065657 84 256 4.0 8.0 0.00 0.00 0.00 81 1016.2
20260902064936 84 79 4.0 9.0 0.00 0.00 0.00 82 1016.3
20260902064558 84 50 4.0 9.0 0.00 0.00 0.00 82 1016.5
20260902064436 84 69 4.0 9.0 0.00 0.00 0.00 82 1016.3
20260902064148 84 116 3.0 7.0 0.00 0.00 0.00 82 1016.4
20260902063431 84 44 3.0 7.0 0.00 0.00 0.00 82 1016.4
20260902063250 84 283 2.0 9.0 0.00 0.00 0.00 82 1016.7
20260902063156 84 12 3.0 9.0 0.00 0.00 0.00 82 1016.5
20260902062430 84 224 3.0 9.0 0.00 0.00 0.00 82 1016.5
20260902061930 84 217 3.0 8.0 0.00 0.00 0.00 82 1016.6
20260902061557 84 161 3.0 8.0 0.00 0.00 0.00 81 1016.8
20260902061430 84 251 4.0 8.0 0.00 0.00 0.00 82 1016.6
20260902060930 84 114 3.0 9.0 0.00 0.00 0.00 82 1016.6
20260902060430 84 138 5.0 9.0 0.00 0.00 0.00 81 1016.6
20260902060135 84 11 3.0 9.0 0.00 0.00 0.00 81 1016.7
20260902055931 85 218 3.0 8.0 0.00 0.00 0.00 81 1016.5
20260902055430 85 180 3.0 10.0 0.00 0.00 0.00 81 1016.4
20260902055416 85 179 4.0 10.0 0.00 0.00 0.00 81 1016.3
20260902054554 84 124 4.0 10.0 0.00 0.00 0.00 80 1016.6
20260902054430 85 346 5.0 11.0 0.00 0.00 0.00 81 1016.5
20260902054150 85 71 3.0 11.0 0.00 0.00 0.00 81 1016.6
20260902053430 85 215 2.0 7.0 0.00 0.00 0.00 80 1016.4
20260902053149 85 169 3.0 7.0 0.00 0.00 0.00 80 1016.6
20260902053119 84 256 3.0 8.0 0.00 0.00 0.00 80 1016.8
20260902052430 85 253 2.0 7.0 0.00 0.00 0.00 80 1016.5
20260902051927 85 298 2.0 7.0 0.00 0.00 0.00 80 1016.6
20260902051607 84 94 4.0 9.0 0.00 0.00 0.00 80 1016.7
20260902051423 85 271 3.0 6.0 0.00 0.00 0.00 80 1016.4
20260902050916 85 200 2.0 8.0 0.00 0.00 0.00 80 1016.5
20260902050411 85 203 3.0 8.0 0.00 0.00 0.00 80 1016.4
20260902050055 85 134 2.0 7.0 0.00 0.00 0.00 79 1016.7
20260902045909 85 321 2.0 7.0 0.00 0.00 0.00 80 1016.6
20260902045407 85 222 2.0 7.0 0.00 0.00 0.00 80 1016.6
20260902044908 85 102 2.0 7.0 0.00 0.00 0.00 79 1016.6
20260902044602 85 299 2.0 8.0 0.00 0.00 0.00 78 1016.8
20260902044408 85 231 3.0 8.0 0.00 0.00 0.00 79 1016.6
20260902044355 85 250 3.0 8.0 0.00 0.00 0.00 78 1016.7
20260902043409 85 290 4.0 6.0 0.00 0.00 0.00 78 1016.8
20260902043111 85 167 2.0 7.0 0.00 0.00 0.00 77 1016.9
20260902042908 85 0 2.0 6.0 0.00 0.00 0.00 78 1016.7
20260902042407 85 127 4.0 6.0 0.00 0.00 0.00 78 1016.7
20260902041909 85 166 2.0 8.0 0.00 0.00 0.00 78 1016.7
20260902041630 85 240 2.0 7.0 0.00 0.00 0.00 77 1016.8
20260902041557 85 240 2.0 7.0 0.00 0.00 0.00 77 1016.8
20260902041408 85 59 2.0 8.0 0.00 0.00 0.00 78 1016.7
20260902040906 86 136 3.0 8.0 0.00 0.00 0.00 78 1016.5
20260902040625 86 210 3.0 8.0 0.00 0.00 0.00 78 1016.4
20260902040133 86 330 3.0 8.0 0.00 0.00 0.00 78 1016.2
20260902040056 85 233 3.0 8.0 0.00 0.00 0.00 77 1016.6
20260902035406 86 285 4.0 9.0 0.00 0.00 0.00 78 1016.3
20260902035132 86 228 4.0 10.0 0.00 0.00 0.00 77 1016.3
20260902034553 86 153 4.0 10.0 0.00 0.00 0.00 77 1016.4
20260902034406 86 23 4.0 10.0 0.00 0.00 0.00 77 1016.1
20260902033906 86 252 3.0 8.0 0.00 0.00 0.00 77 1016.0
20260902033407 86 274 3.0 11.0 0.00 0.00 0.00 76 1016.0
20260902033112 86 219 5.0 11.0 0.00 0.00 0.00 76 1016.2
20260902032907 86 8 5.0 11.0 0.00 0.00 0.00 76 1015.9
20260902032406 87 219 3.0 8.0 0.00 0.00 0.00 76 1015.9
20260902031905 87 77 4.0 7.0 0.00 0.00 0.00 76 1015.7
20260902031558 86 68 2.0 8.0 0.00 0.00 0.00 75 1015.7
20260902031405 87 342 4.0 8.0 0.00 0.00 0.00 75 1015.5
20260902030902 87 254 3.0 10.0 0.00 0.00 0.00 75 1015.5
20260902030402 87 56 4.0 10.0 0.00 0.00 0.00 75 1015.4
20260902030056 87 67 4.0 9.0 0.00 0.00 0.00 74 1015.5
20260902025902 87 69 4.0 9.0 0.00 0.00 0.00 74 1015.2
20260902025627 87 40 3.0 9.0 0.00 0.00 0.00 74 1015.1
20260902024941 87 316 3.0 9.0 0.00 0.00 0.00 72 1015.2
20260902024902 88 89 3.0 7.0 0.00 0.00 0.00 73 1015.1
20260902024851 87 316 3.0 9.0 0.00 0.00 0.00 72 1015.2
20260902024402 88 152 4.0 7.0 0.00 0.00 0.00 72 1014.9
20260902023902 88 8 3.0 10.0 0.00 0.00 0.00 72 1014.8
20260902023403 88 304 5.0 7.0 0.00 0.00 0.00 71 1014.8
20260902023131 0 0.0 0.0 0.00 0.00 0.00
20260902023101 88 190 4.0 9.0 0.00 0.00 0.00 70 1015.0
20260902022502 89 205 4.0 0.0 0.00 0.00 0.00 67 1014.3
20260902022001 89 205 4.0 6.0 0.00 0.00 0.00 67 1014.3
20260902021501 89 205 4.0 7.0 0.00 0.00 0.00 67 1014.3
20260902021001 89 174 3.0 8.0 0.00 0.00 0.00 67 1014.3
20260902020501 89 70 4.0 8.0 0.00 0.00 0.00 66 1014.1
20260902020144 89 34 2.0 11.0 0.00 0.00 0.00 64 1014.3
20260902020001 90 115 4.0 11.0 0.00 0.00 0.00 64 1014.1
20260902015500 90 27 5.0 11.0 0.00 0.00 0.00 64 1014.1
20260902015003 90 164 5.0 11.0 0.00 0.00 0.00 63 1014.0
20260902014724 91 352 4.0 9.0 0.00 0.00 0.00 62 1014.0
20260902014602 90 123 4.0 10.0 0.00 0.00 0.00 62 1014.2
20260902014002 91 52 4.0 9.0 0.00 0.00 0.00 61 1013.9
20260902013502 91 155 4.0 9.0 0.00 0.00 0.00 60 1013.8
20260902013106 91 10 2.0 10.0 0.00 0.00 0.00 58 1013.7
20260902013000 91 273 2.0 9.0 0.00 0.00 0.00 59 1013.6
20260902012736 92 294 4.0 9.0 0.00 0.00 0.00 58 1013.5
20260902012001 92 330 4.0 11.0 0.00 0.00 0.00 57 1013.5
20260902011555 92 60 3.0 10.0 0.00 0.00 0.00 56 1013.6
20260902011501 92 222 4.0 11.0 0.00 0.00 0.00 56 1013.4
20260902011001 93 177 6.0 10.0 0.00 0.00 0.00 55 1013.4
20260902010502 93 141 4.0 8.0 0.00 0.00 0.00 53 1013.1
20260902010454 93 344 4.0 9.0 0.00 0.00 0.00 52 1013.2
20260902010002 93 25 4.0 9.0 0.00 0.00 0.00 53 1013.1
20260902005501 93 214 5.0 11.0 0.00 0.00 0.00 52 1013.0
20260902005002 94 221 4.0 11.0 0.00 0.00 0.00 52 1013.0
20260902004603 93 180 4.0 11.0 0.00 0.00 0.00 51 1013.2
20260902004502 94 319 5.0 11.0 0.00 0.00 0.00 51 1013.0
20260902004001 94 20 5.0 11.0 0.00 0.00 0.00 51 1012.9
20260902003502 95 58 4.0 8.0 0.00 0.00 0.00 50 1012.9
20260902003104 95 240 3.0 9.0 0.00 0.00 0.00 49 1013.1
20260902003002 95 139 4.0 8.0 0.00 0.00 0.00 50 1012.8
20260902002500 96 288 4.0 9.0 0.00 0.00 0.00 49 1012.7
20260902002002 96 292 4.0 10.0 0.00 0.00 0.00 49 1012.6
20260902001556 96 210 3.0 10.0 0.00 0.00 0.00 48 1012.8
20260902001501 96 325 4.0 10.0 0.00 0.00 0.00 48 1012.5
20260902001001 97 94 5.0 9.0 0.00 0.00 0.00 46 1012.6
20260902000501 97 56 5.0 9.0 0.00 0.00 0.00 46 1012.5
20260902000055 97 88 4.0 10.0 0.00 0.00 0.00 44 1012.7
20260902000002 98 196 5.0 8.0 0.00 0.00 0.00 45 1012.5
20260901235500 98 200 3.0 8.0 0.00 0.00 0.00 43 1012.4
20260901235002 99 219 3.0 8.0 0.00 0.00 0.00 42 1012.4
20260901234635 98 198 3.0 8.0 0.00 0.00 0.00 42 1012.5
20260901234447 99 103 4.0 8.0 0.00 0.00 0.00 42 1012.2
20260901233941 99 242 4.0 8.0 0.00 0.00 0.00 41 1012.3
20260901233440 99 167 4.0 9.0 0.00 0.00 0.00 41 1012.2
20260901233103 99 82 6.0 11.0 0.00 0.00 0.00 40 1012.4
20260901232935 99 184 6.0 9.0 0.00 0.00 0.00 40 1012.2
20260901232435 100 347 3.0 7.0 0.00 0.00 0.00 39 1012.4
20260901231929 100 262 3.0 9.0 0.00 0.00 0.00 40 1012.3
20260901231607 100 3 5.0 8.0 0.00 0.00 0.00 39 1012.4
20260901231429 101 263 5.0 9.0 0.00 0.00 0.00 39 1012.2
20260901230929 101 67 4.0 9.0 0.00 0.00 0.00 38 1012.0
20260901230429 101 216 4.0 11.0 0.00 0.00 0.00 37 1012.1
20260901230159 101 336 4.0 11.0 0.00 0.00 0.00 37 1012.0
20260901230112 101 229 3.0 11.0 0.00 0.00 0.00 37 1012.3
20260901225929 101 238 4.0 11.0 0.00 0.00 0.00 37 1012.0
20260901224928 102 77 3.0 8.0 0.00 0.00 0.00 37 1012.0
20260901224603 101 112 3.0 8.0 0.00 0.00 0.00 36 1012.1
20260901224430 102 358 4.0 8.0 0.00 0.00 0.00 37 1012.1
20260901223930 102 176 2.0 7.0 0.00 0.00 0.00 37 1012.0
20260901223430 102 98 5.0 7.0 0.00 0.00 0.00 36 1012.1
20260901223126 102 229 4.0 9.0 0.00 0.00 0.00 35 1012.3
20260901222929 103 257 1.0 7.0 0.00 0.00 0.00 36 1012.0
20260901222429 102 289 3.0 7.0 0.00 0.00 0.00 37 1012.0
20260901221928 102 285 3.0 7.0 0.00 0.00 0.00 37 1012.0
20260901221618 102 226 4.0 9.0 0.00 0.00 0.00 36 1012.4
20260901221431 102 288 6.0 7.0 0.00 0.00 0.00 37 1012.0
20260901221157 103 276 2.0 11.0 0.00 0.00 0.00 36 1012.0
20260901220718 103 297 4.0 11.0 0.00 0.00 0.00 37 1012.1
20260901220057 103 79 2.0 8.0 0.00 0.00 0.00 37 1012.3
20260901215931 104 304 3.0 6.0 0.00 0.00 0.00 38 1012.1
20260901215428 103 106 2.0 6.0 0.00 0.00 0.00 39 1012.1
20260901214928 103 307 3.0 10.0 0.00 0.00 0.00 38 1012.2
20260901214600 103 286 4.0 9.0 0.00 0.00 0.00 37 1012.4
20260901214429 103 233 5.0 10.0 0.00 0.00 0.00 37 1012.2
20260901213929 104 272 2.0 8.0 0.00 0.00 0.00 37 1012.3
20260901213429 103 245 3.0 10.0 0.00 0.00 0.00 38 1012.3
20260901213126 103 225 3.0 9.0 0.00 0.00 0.00 39 1012.5
20260901212929 103 227 4.0 10.0 0.00 0.00 0.00 38 1012.4
20260901212429 103 262 3.0 11.0 0.00 0.00 0.00 37 1012.4
20260901211929 104 253 5.0 11.0 0.00 0.00 0.00 38 1012.4
20260901211602 103 229 2.0 13.0 0.00 0.00 0.00 38 1012.6
20260901211431 103 290 3.0 11.0 0.00 0.00 0.00 40 1012.4
20260901210929 103 37 5.0 11.0 0.00 0.00 0.00 41 1012.4
20260901210429 103 64 3.0 12.0 0.00 0.00 0.00 41 1012.6
20260901210101 103 123 4.0 13.0 0.00 0.00 0.00 40 1012.8
20260901205929 103 181 4.0 12.0 0.00 0.00 0.00 40 1012.6
20260901205428 103 209 3.0 8.0 0.00 0.00 0.00 41 1012.6
20260901204928 103 133 3.0 7.0 0.00 0.00 0.00 41 1012.8
20260901204559 102 250 2.0 9.0 0.00 0.00 0.00 41 1013.1
20260901204431 103 207 3.0 7.0 0.00 0.00 0.00 42 1012.9
20260901203930 102 124 2.0 9.0 0.00 0.00 0.00 43 1012.9
20260901203431 102 70 3.0 9.0 0.00 0.00 0.00 43 1013.1
20260901203107 102 82 3.0 8.0 0.00 0.00 0.00 41 1013.3
20260901202928 103 53 2.0 8.0 0.00 0.00 0.00 41 1013.0
20260901202429 102 36 4.0 10.0 0.00 0.00 0.00 41 1013.1
20260901202151 102 188 4.0 10.0 0.00 0.00 0.00 43 1013.2
20260901201654 102 335 2.0 9.0 0.00 0.00 0.00 43 1013.2
20260901201604 101 295 1.0 8.0 0.00 0.00 0.00 43 1013.5
20260901200929 103 311 3.0 7.0 0.00 0.00 0.00 41 1013.4
20260901200429 103 296 3.0 7.0 0.00 0.00 0.00 40 1013.5
20260901195929 103 190 2.0 6.0 0.00 0.00 0.00 42 1013.5
20260901195428 102 140 1.0 7.0 0.00 0.00 0.00 42 1013.7
20260901194929 103 264 3.0 7.0 0.00 0.00 0.00 41 1013.8
20260901194559 102 40 4.0 9.0 0.00 0.00 0.00 41 1013.9
20260901194428 103 169 4.0 10.0 0.00 0.00 0.00 40 1013.8
20260901193923 102 97 3.0 10.0 0.00 0.00 0.00 40 1013.9
20260901193418 102 181 2.0 8.0 0.00 0.00 0.00 39 1014.0
20260901193133 103 34 4.0 7.0 0.00 0.00 0.00 41 1014.0
20260901193108 102 56 3.0 7.0 0.00 0.00 0.00 39 1014.2
20260901192411 102 220 3.0 8.0 0.00 0.00 0.00 42 1014.0
20260901191905 102 233 3.0 10.0 0.00 0.00 0.00 39 1014.1
20260901191553 102 197 3.0 10.0 0.00 0.00 0.00 42 1014.4
20260901191402 102 311 4.0 10.0 0.00 0.00 0.00 41 1014.2
20260901190902 101 14 4.0 11.0 0.00 0.00 0.00 42 1014.3
20260901190401 101 41 4.0 11.0 0.00 0.00 0.00 40 1014.5
20260901190052 101 136 1.0 9.0 0.00 0.00 0.00 43 1014.7
20260901185901 101 222 2.0 9.0 0.00 0.00 0.00 43 1014.5
20260901185623 101 226 4.0 10.0 0.00 0.00 0.00 44 1014.6
20260901184902 101 186 4.0 10.0 0.00 0.00 0.00 40 1014.7
20260901184626 100 253 4.0 11.0 0.00 0.00 0.00 43 1015.0
20260901184402 101 237 3.0 9.0 0.00 0.00 0.00 43 1014.6
20260901183901 100 265 3.0 9.0 0.00 0.00 0.00 45 1014.9
20260901183401 100 86 4.0 9.0 0.00 0.00 0.00 46 1014.9
20260901183057 99 158 3.0 9.0 0.00 0.00 0.00 45 1015.3
20260901182901 100 51 3.0 9.0 0.00 0.00 0.00 47 1015.1
20260901182402 100 136 3.0 6.0 0.00 0.00 0.00 46 1015.2
20260901181901 99 262 3.0 8.0 0.00 0.00 0.00 46 1015.2
20260901181627 99 350 3.0 8.0 0.00 0.00 0.00 46 1015.6
20260901181401 99 248 5.0 8.0 0.00 0.00 0.00 46 1015.3
20260901180901 99 59 2.0 9.0 0.00 0.00 0.00 48 1015.4
20260901180406 99 262 2.0 10.0 0.00 0.00 0.00 49 1015.5
20260901180402 99 188 4.0 9.0 0.00 0.00 0.00 47 1015.6
20260901180109 98 231 2.0 10.0 0.00 0.00 0.00 47 1015.8
20260901175401 98 136 4.0 10.0 0.00 0.00 0.00 47 1015.7
20260901174914 98 139 4.0 11.0 0.00 0.00 0.00 51 1015.9
20260901174805 97 348 3.0 11.0 0.00 0.00 0.00 50 1016.1
20260901174402 98 212 3.0 11.0 0.00 0.00 0.00 51 1015.8
20260901173901 97 285 2.0 6.0 0.00 0.00 0.00 52 1015.9
20260901173401 97 276 3.0 6.0 0.00 0.00 0.00 51 1015.8
20260901173102 97 345 2.0 11.0 0.00 0.00 0.00 51 1016.1
20260901172901 97 334 3.0 9.0 0.00 0.00 0.00 52 1015.9
20260901172400 96 136 4.0 9.0 0.00 0.00 0.00 53 1015.8
20260901171900 96 141 4.0 7.0 0.00 0.00 0.00 52 1016.0
20260901171627 96 259 2.0 7.0 0.00 0.00 0.00 52 1016.3
20260901171400 97 108 2.0 6.0 0.00 0.00 0.00 52 1016.1
20260901170903 96 217 3.0 9.0 0.00 0.00 0.00 52 1016.1
20260901170402 95 193 3.0 9.0 0.00 0.00 0.00 55 1016.1
20260901170106 95 54 3.0 8.0 0.00 0.00 0.00 52 1016.6
20260901165903 95 118 3.0 8.0 0.00 0.00 0.00 53 1016.3
20260901165613 94 214 3.0 9.0 0.00 0.00 0.00 57 1016.4
20260901165602 95 327 2.0 8.0 0.00 0.00 0.00 56 1016.2
20260901164606 93 78 4.0 9.0 0.00 0.00 0.00 57 1016.6
20260901164402 94 249 4.0 9.0 0.00 0.00 0.00 58 1016.4
20260901163902 93 296 3.0 8.0 0.00 0.00 0.00 60 1016.4
20260901163403 93 39 2.0 8.0 0.00 0.00 0.00 60 1016.4
20260901163121 92 72 3.0 8.0 0.00 0.00 0.00 60 1016.6
20260901162903 93 126 4.0 8.0 0.00 0.00 0.00 61 1016.3
20260901162624 92 321 4.0 8.0 0.00 0.00 0.00 63 1016.3
20260901161901 92 277 3.0 9.0 0.00 0.00 0.00 63 1016.3